Location: Tel Aviv
(32.0670°N, 34.7670°E)
Time: 04:13:23
(UTC+03:00)

Vanguard 2 - Pass Details

Date: 30 January 2022
Orbit: 552 x 2935 km, 32.9° (Epoch: 25 May)

Event Time Altitude Azimuth Distance (km) Brightness Sun altitude
Rises 22:36:55 0° 283° (WNW) 4,601 11.8 -67.2°
Enters shadow 22:38:10 - 282° (WNW) 4,246 11.6 -67.5°
Reaches altitude 10° 22:39:30 10° 281° (W) 3,883 - -67.7°
Maximum altitude 22:50:28 74° 199° (SSW) 2,349 - -69.5°
Drops below altitude 10° 23:07:18 10° 118° (ESE) 5,682 - -72.0°
Sets 23:11:59 0° 117° (ESE) 6,775 - -72.6°
